Location: Dalton
(34.7700°N, 84.9700°W)
Time: 02:51:08
(UTC-04:00)

Hubble Space Telescope - Pass Details

Date: 11 October 2017
Orbit: 537 x 541 km, 28.5° (Epoch: 20 October)

Event Time Altitude Azimuth Distance (km) Brightness Sun altitude
Exits shadow 06:34:16 13° 217° (SW) 1,622 2.9 -14.8°
Maximum altitude 06:35:15 14° 201° (SSW) 1,571 2.9 -14.6°
Drops below altitude 10° 06:37:19 10° 171° (S) 1,784 3.5 -14.2°
Sets 06:40:33 0° 145° (SE) 2,673 4.8 -13.5°
